www.pogodaiklimat.ru

Погода и климат >> Архив погоды >> Мексика >> Toluca


ПОГОДА в Toluca

  • Прогноз погоды в Toluca
  • Монитор погоды в Toluca
  • Климат города

АРХИВ ПОГОДЫ в Toluca

Время (UTC), дата Ветер
(напр.,м/с)
 
Видим.   Явления Облачность Т
(С)
Тd
(С)
f
(%)
Тe
(С)
Тes
(С)
Комфортность P
(гПа)
Po
(гПа)
Тmin
(С)
Tmax
(С)
R
(мм)
S
(см)
03 21.03 СЗ 1 10 км ясно +12.8 -2.3 35 +13 +13 1007.5 740.6
06 21.03 З 1 10 км ясно +7.8 -1.6 51 +8 +8 1010.9 740.9 +1.6 +25.2
09 21.03 Ю 1 10 км ясно +4.6 -2.7 59 +4 +4 1015.0 740.4
12 21.03 С 1 10 км ясно +2.9 -2.0 70 +2 +2 1020.2 740.4 +1.6 +25.2
15 21.03 СВ 1 30 км мгла {туман} 1/0
[Ci sp]
+11.4 -1.2 42 +12 +20 1024.1 741.4
18 21.03 З 5 30 км мгла {туман} 1/0
[Ci sp]
+22.6 -5.8 14 +21 +31 комфорт 1019.5 740.7 +1.3 +23.0
21 21.03 С 3 30 км ясно +24.9 -5.4 13 +23 +34 комфорт 1012.2 739.2
00 22.03 СВ 2 35 км ясно +20.9 -6.6 15 +21 +21 комфорт 1006.5 738.7 +1.3 +26.3
03 22.03 СВ 3 10 км ясно +14.2 -3.0 30 +14 +14 1006.2 740.3
06 22.03 Ю 1 10 км ясно +8.8 -4.6 38 +9 +9 1009.5 740.7 +1.3 +26.3
09 22.03 С 1 10 км ясно +5.2 -4.3 50 +5 +5 1012.9 739.5
12 22.03 С 1 10 км ясно +3.1 -5.5 53 +2 +2 1017.7 739.1 +1.8 +26.3
15 22.03 С 1 10 км ясно +3.1 -5.5 53 +2 +10 опасность
простуды
1017.7 739.1 +1.8 +26.3
18 22.03 С 4 30 км мгла {туман} ясно +23.0 -6.5 13 +21 +34 комфорт 1018.2 740.1 +1.4 +23.8
21 22.03 С 3 35 км ясно +24.6 -9.4 10 +22 +33 комфорт 1011.2 738.6
00 23.03 С 3 30 км ясно +20.8 -7.7 14 +20 +21 1005.7 738.2 +1.4 +25.8
03 23.03 С 1 10 км {туман} ясно +13.2 -2.9 33 +14 +14 1005.7 739.9
06 23.03 ЮЗ 1 10 км ясно +7.7 -3.0 47 +7 +7 1009.6 740.3 +1.4 +25.8
09 23.03 С 1 10 км ясно +4.2 -4.6 53 +3 +3 1012.8 738.9
12 23.03 З 1 10 км ясно +2.4 -5.9 54 +1 +1 1017.7 738.5 +1.1 +25.8
15 23.03 З 1 25 км мгла {туман} ясно +11.5 -5.8 29 +12 +20 1022.4 739.9
18 23.03 СЗ 3 25 км мгла {туман} ясно +23.8 -10.9 9 +21 +38 комфорт 1018.2 739.6 +0.9 +24.7
21 23.03 С 3 30 км 1/1 800 м
[Cu hum]
+26.5 -9.6 9 +23 +34 комфорт 1009.6 737.5
00 24.03 ЮВ 3 20 км мгла {туман} 4/4 600 м
[Cu med, cong]
+21.8 +0.6 24 +21 +22 комфорт 1003.4 737.0 +0.9 +27.6
03 24.03 З 2 10 км 1/1 800 м
[Sc diur, vesp]
+14.2 +5.8 57 +14 +14 1003.2 738.7
06 24.03 Ю 1 10 км ясно +9.6 +3.0 63 +9 +9 1007.0 739.6 +0.9 +27.6
09 24.03 Ю 1 10 км ясно +6.8 +3.1 77 +6 +6 1010.9 738.9
12 24.03 Ю 1 10 км ясно +4.6 +1.5 80 +3 +3 1015.1 738.3 +3.5 +27.6
15 24.03 ЮВ 1 15 км мгла {туман} 1/1 800 м
[Cu hum]
+12.8 +5.4 61 +13 +20 1019.9 740.1
18 24.03 СЗ 3 20 км мгла {туман} 1/1 800 м
[Cu hum]
+23.7 +3.5 27 +23 +38 комфорт 1016.2 739.6 +3.3 +24.9
21 24.03 СВ 2 20 км мгла {туман} 5/5 800 м
[Cb calv]
+20.6 -1.3 23 +21 +28 комфорт 1008.2 737.4
00 25.03 СВ 1 10 км слабый дождь {гроза} 10/10 600 м
[Cb calv]
+15.4 +7.8 60 +16 +16 1005.6 737.9 1
03 25.03 Ю 2 10 км {туман} 1/1 800 м
[Sc diur, vesp]
+13.2 +5.9 61 +13 +13 1005.8 739.1
06 25.03 Ю 1 10 км ясно +9.1 +4.1 71 +9 +9 1009.3 739.5 +3.3 +27.7
09 25.03 ЮВ 1 8000 м ясно +7.1 +3.8 80 +6 +6 1012.4 738.2
12 25.03 В 1 8000 м ясно +5.2 +2.5 83 +4 +4 1016.4 738.6 +3.9 +27.7
15 25.03 СЗ 1 20 км мгла {туман} ясно +12.8 +5.0 59 +13 +21 1020.0 740.0
18 25.03 СВ 3 20 км {туман} туман 1/1 800 м
[Cu med, cong]
+22.5 -1.1 21 +22 +36 комфорт 1016.2 739.5 +3.7 +23.7
21 25.03 С 2 20 км мгла {туман} 6/6 800 м
[Cb cap]
+26.3 -0.7 17 +24 +30 комфорт 1007.7 736.8
00 26.03 СВ 3 10 км дождь {гроза} 10/10 600 м
[]
+12.3 +8.4 77 +11 +11 1006.9 738.4 13
03 26.03 ЮЗ 1 10 км {дождь} 8/5 800 м
[Cb cap Ac trans]
+10.0 +7.7 86 +10 +10 1007.5 739.3 0.2
06 26.03 ЮВ 1 10 км {дождь} 5/1 600 м
[Sc diur, vesp Ac trans]
+8.6 +6.2 85 +8 +8 1010.6 739.3 0.2
09 26.03 Ю 1 10 км ясно +6.4 +3.8 83 +5 +5 1013.9 738.1
12 26.03 З 1 10 км ясно +4.3 +2.8 90 +3 +3 1016.9 737.8 +3.2 +27.3
15 26.03 Ю 1 30 км {туман} ясно +11.5 +6.2 70 +11 +20 1019.5 739.1
18 26.03 СЗ 1 20 км {туман} 4/4 800 м
[Cu med, cong]
+21.6 +5.1 34 +22 +36 комфорт 1016.1 738.8 +3.2 +22.6
21 26.03 Ю 2 20 км 6/6 800 м
[Cb calv]
+24.7 +6.3 31 +25 +30 комфорт 1008.9 736.8
00 27.03 СЗ 4 15 км 9/9 600 м
[Cb calv]
+16.6 +2.4 38 +16 +16 1005.5 737.1 +3.2 +25.7
12 27.03 ЮВ 1 10 км ясно +4.4 +2.1 85 +3 +3 1014.3 737.4 +3.1 +25.7
15 27.03 С 1 30 км мгла {туман} ясно +12.5 +3.9 56 +13 +21 1017.8 738.6
18 27.03 З 3 25 км {туман} туман 3/3 800 м
[Cu med, cong]
+22.8 +0.1 22 +22 +34 комфорт 1014.8 738.4 +2.9 +23.5
21 27.03 Ю 1 25 км мгла {туман} 5/5 800 м
[Cb calv]
+23.5 -4.0 16 +22 +30 комфорт 1007.4 736.2
00 28.03 ЮВ 2 25 км гроза без осадков {дождь} 9/9 600 м
[Cb calv]
+17.0 +2.1 37 +17 +17 1004.8 736.2 +2.9 +24.6 0.0

 

Местоположение метеостанции Toluca (Мексика): широта 19.28 долгота -99.68 высота над уровнем моря 2720 м.

В архиве по умолчанию представлена погода в Toluca за последнюю неделю. Архивные данные за месяц целиком и за предыдущие месяцы, начиная с января 2011 года, Вы можете получить, выбрав интересующий диапазон дат из раскрывающегося списка и нажав кнопку "Ввод!".

Внимание! Время в таблицах - всемирное. Для получения местного времени необходимо прибавить поправку, которая в Toluca равна -6 ч.

Смотрите также архив погоды в соседних городах и на ближайших метеорологических станциях:

Погода в Geografia Unam (Мексика) (53 км)
Погода в Mexico City (Мексика) (54 км)
Погода в Cuernavaca (Мексика) (65 км)
Погода в Zacatepec (Мексика) (84 км)
Погода в Pachuca (Мексика) (136 км)
Погода в Tlaxcala (Мексика) (150 км)
Погода в Tlaxcala Airport (Мексика) (151 км)
Погода в Morelia (Мексика) (156 км)
Погода в Puebla (Мексика) (162 км)
Погода в Queretaro (Мексика) (163 км)

Пояснения к столбцам:

Ветер - указаны скорость ветра в м/с - средняя за 10 мин, порывы в срок и между сроками (в фигурных скобках) и направление, откуда дует ветер: С - северный, СВ - северо-восточный, В - восточный, ЮВ - юго-восточный, Ю - южный, ЮЗ - юго-западный, З - западный, СЗ - северо-западный.
Видимость - горизонтальная дальность видимости в метрах или километрах. При видимости от 1 до 10 км при отсутствии осадков обычно наблюдается дымка, при ухудшении видимости до 1 км и менее - туман. В сухую погоду видимость может ухудшаться дымом, пылью или мглою.
Явления - указаны атмосферные явления, наблюдавшиеся в срок или в последний час перед сроком; фигурными скобками обозначены явления, наблюдавшиеся между сроками (за 1-3 часа до срока); квадратными скобками обозначены град или гололедные отложения с указанием их диаметра в мм.
Облачность - указаны через наклонную черту общая и нижняя облачность в баллах и высота нижней границы облаков в метрах; квадратными скобками обозначены формы облаков: Ci - перистые, Cs - перисто-слоистые, Cc - перисто-кучевые, Ac - высококучевые, As - высокослоистые, Sc - слоисто-кучевые, Ns - слоисто-дождевые, Cu - кучевые, Cb - кучево-дождевые. Подробнее классификацию облаков см. в Атласе облаков (PDF).
T - Температура воздуха - температура, измеренная на высоте 2 м над землей.
Td - Температура точки росы - температура, при понижении до которой содержащийся в воздухе водяной пар достигнет насыщения.
f - Относительная влажность воздуха - влажноcть воздуха, измеренная на высоте 2 м над землей.
Te - Эффективная температура - температура, которую ощущает одетый по сезону человек в тени. Характеристика душности погоды. При расчете учитывается влияние влажности воздуха и скорости ветра на теплоощущения человека.
Tes - Эффективная температура на солнце - температура, которую ощущает человек, с поправкой на солнечный нагрев. Характеристика знойности погоды. Зависит от высоты солнца над горизонтом, облачности и скорости ветра. Ночью, в пасмурную погоду, а также при ветре 12 м/с и более поправка равна нулю.
P - Атмосферное давление - приведенное к уровню моря атмосферное давление.
Po - Атмосферное давление - измеренное на уровне метеостанции атмосферное давление.
Tmin - Минимальная температура - минимум температуры воздуха на высоте 2 м над землей.
Tmax - Максимальная температура - максимум температуры воздуха на высоте 2 м над землей.
R - Количество осадков - Количество выпавших осадков, мм. При наведении курсора мыши на число - период времени, за который выпало указанное количество осадков.
S - Снежный покров - Высота снежного покрова, см. При наведении курсора мыши на число - состояние снежного покрова и степень покрытия местности в баллах.